• In Hungary
  • List of Countries
  • For 7 days
  • Water Temperature
  • Satellite Maps
  • Weather Map
  • News
  • Weather Widgets
  • user-avatar
    Login

    Hourly Weather Santa Lucía

    Today, 16 December, Saturday

    Time Temperature Precipitation Wind Pressure Humidity
    00:00 +24°C° 0 mm 2 mps 733 mmHg 84%
    01:00 +24°C° 0 mm 2 mps 732 mmHg 85%
    02:00 +24°C° 0 mm 2 mps 732 mmHg 85%
    03:00 +24°C° 0 mm 2 mps 732 mmHg 85%
    04:00 +24°C° 0 mm 2 mps 732 mmHg 85%
    05:00 +24°C° 0 mm 2 mps 732 mmHg 86%
    06:00 +24°C° 0 mm 2 mps 732 mmHg 86%
    07:00 +26°C° 0 mm 2 mps 733 mmHg 77%
    08:00 +28°C° 0 mm 3 mps 733 mmHg 67%
    09:00 +30°C° 0 mm 3 mps 733 mmHg 58%
    10:00 +31°C° 0 mm 3 mps 733 mmHg 55%
    11:00 +33°C° 0 mm 4 mps 732 mmHg 52%
    12:00 +34°C° 0 mm 4 mps 732 mmHg 49%
    13:00 +34°C° 0 mm 4 mps 732 mmHg 48%
    14:00 +34°C° 0 mm 4 mps 731 mmHg 47%
    15:00 +34°C° 0 mm 4 mps 731 mmHg 47%
    16:00 +33°C° 0 mm 3 mps 731 mmHg 52%
    17:00 +30°C° 0 mm 3 mps 731 mmHg 58%
    18:00 +28°C° 0 mm 2 mps 731 mmHg 63%
    19:00 +27°C° 0 mm 2 mps 731 mmHg 66%
    20:00 +27°C° 0 mm 2 mps 732 mmHg 69%
    21:00 +26°C° 0 mm 2 mps 733 mmHg 72%
    22:00 +25°C° 0 mm 2 mps 733 mmHg 75%
    23:00 +25°C° 0 mm 2 mps 733 mmHg 78%

    Tomorrow, 17 December, Sunday

    Time Temperature Precipitation Wind Pressure Humidity
    00:00 +24°C° 0 mm 2 mps 733 mmHg 80%
    01:00 +23°C° 0 mm 2 mps 733 mmHg 82%
    02:00 +23°C° 0 mm 2 mps 732 mmHg 84%
    03:00 +21°C° 0 mm 2 mps 732 mmHg 85%
    04:00 +21°C° 0 mm 2 mps 732 mmHg 83%
    05:00 +21°C° 0 mm 2 mps 732 mmHg 81%
    06:00 +21°C° 0 mm 2 mps 733 mmHg 80%
    07:00 +25°C° 0 mm 3 mps 733 mmHg 71%
    08:00 +27°C° 0 mm 3 mps 734 mmHg 62%
    09:00 +30°C° 0 mm 3 mps 734 mmHg 53%
    10:00 +32°C° 0 mm 4 mps 734 mmHg 50%
    11:00 +34°C° 0 mm 4 mps 733 mmHg 47%
    12:00 +35°C° 0 mm 5 mps 733 mmHg 44%
    13:00 +35°C° 0 mm 5 mps 732 mmHg 44%
    14:00 +35°C° 0 mm 5 mps 732 mmHg 44%
    15:00 +35°C° 0 mm 4 mps 731 mmHg 45%
    16:00 +33°C° 0 mm 4 mps 731 mmHg 51%
    17:00 +30°C° 0 mm 3 mps 731 mmHg 57%
    18:00 +28°C° 0 mm 2 mps 731 mmHg 63%
    19:00 +27°C° 0 mm 2 mps 732 mmHg 66%
    20:00 +27°C° 0 mm 2 mps 732 mmHg 69%
    21:00 +26°C° 0 mm 2 mps 733 mmHg 73%
    22:00 +26°C° 0 mm 2 mps 733 mmHg 74%
    23:00 +25°C° 0 mm 2 mps 733 mmHg 76%

    Day after tomorrow, 18 December, Monday

    Time Temperature Precipitation Wind Pressure Humidity
    00:00 +25°C° 0 mm 2 mps 733 mmHg 78%
    01:00 +25°C° 0 mm 2 mps 732 mmHg 78%
    02:00 +25°C° 0 mm 2 mps 732 mmHg 78%
    03:00 +25°C° 0 mm 2 mps 732 mmHg 78%
    04:00 +25°C° 0 mm 2 mps 732 mmHg 79%
    05:00 +25°C° 0 mm 2 mps 732 mmHg 80%
    06:00 +25°C° 0 mm 2 mps 732 mmHg 80%
    07:00 +26°C° 0 mm 3 mps 733 mmHg 74%
    08:00 +28°C° 0 mm 3 mps 734 mmHg 67%
    09:00 +30°C° 0 mm 3 mps 734 mmHg 60%
    10:00 +32°C° 0 mm 4 mps 734 mmHg 58%
    11:00 +33°C° 0 mm 4 mps 734 mmHg 55%
    12:00 +34°C° 0 mm 5 mps 733 mmHg 53%
    13:00 +34°C° 0 mm 4 mps 733 mmHg 53%
    14:00 +33°C° 0 mm 4 mps 732 mmHg 53%
    15:00 +33°C° 0 mm 4 mps 731 mmHg 54%
    16:00 +30°C° 0 mm 4 mps 731 mmHg 59%
    17:00 +29°C° 0 mm 3 mps 731 mmHg 65%
    18:00 +27°C° 0 mm 2 mps 732 mmHg 71%
    19:00 +27°C° 0 mm 2 mps 732 mmHg 74%
    20:00 +26°C° 0 mm 2 mps 733 mmHg 76%
    21:00 +25°C° 0 mm 2 mps 734 mmHg 79%
    22:00 +25°C° 0 mm 2 mps 734 mmHg 80%
    23:00 +25°C° 0 mm 2 mps 733 mmHg 80%

    19 December, Tuesday

    Time Temperature Precipitation Wind Pressure Humidity
    00:00 +25°C° 0 mm 2 mps 733 mmHg 81%
    01:00 +25°C° 0 mm 2 mps 733 mmHg 82%
    02:00 +24°C° 0 mm 2 mps 732 mmHg 82%
    03:00 +24°C° 0 mm 2 mps 732 mmHg 83%
    04:00 +24°C° 0 mm 2 mps 732 mmHg 82%
    05:00 +24°C° 0 mm 2 mps 732 mmHg 82%
    06:00 +24°C° 0 mm 2 mps 733 mmHg 81%
    07:00 +26°C° 0 mm 2 mps 733 mmHg 75%
    08:00 +28°C° 0 mm 3 mps 734 mmHg 69%
    09:00 +30°C° 0 mm 3 mps 734 mmHg 63%
    10:00 +30°C° 0.1 mm 3 mps 734 mmHg 61%
    11:00 +31°C° 0.1 mm 3 mps 733 mmHg 60%
    12:00 +32°C° 0.1 mm 4 mps 733 mmHg 58%
    13:00 +33°C° 0 mm 4 mps 732 mmHg 57%
    14:00 +33°C° 0 mm 4 mps 731 mmHg 55%
    15:00 +34°C° 0 mm 4 mps 731 mmHg 53%
    16:00 +31°C° 0 mm 3 mps 731 mmHg 58%
    17:00 +30°C° 0 mm 3 mps 731 mmHg 64%
    18:00 +28°C° 0 mm 2 mps 731 mmHg 70%
    19:00 +27°C° 0 mm 2 mps 732 mmHg 73%
    20:00 +27°C° 0 mm 2 mps 733 mmHg 76%
    21:00 +26°C° 0 mm 2 mps 733 mmHg 79%
    22:00 +25°C° 0 mm 2 mps 733 mmHg 81%
    23:00 +25°C° 0 mm 2 mps 733 mmHg 82%

    20 December, Wednesday

    Time Temperature Precipitation Wind Pressure Humidity
    00:00 +24°C° 0 mm 2 mps 733 mmHg 84%
    01:00 +24°C° 0 mm 2 mps 732 mmHg 84%
    02:00 +24°C° 0 mm 2 mps 732 mmHg 85%
    03:00 +24°C° 0 mm 2 mps 731 mmHg 85%
    04:00 +24°C° 0 mm 2 mps 732 mmHg 84%
    05:00 +24°C° 0 mm 2 mps 732 mmHg 84%
    06:00 +24°C° 0 mm 2 mps 732 mmHg 83%
    07:00 +26°C° 0 mm 2 mps 733 mmHg 74%
    08:00 +28°C° 0 mm 2 mps 733 mmHg 65%
    09:00 +31°C° 0 mm 2 mps 734 mmHg 57%
    10:00 +32°C° 0 mm 2 mps 733 mmHg 52%
    11:00 +34°C° 0 mm 3 mps 733 mmHg 48%
    12:00 +35°C° 0 mm 3 mps 732 mmHg 43%
    13:00 +35°C° 0 mm 3 mps 732 mmHg 45%
    14:00 +35°C° 0 mm 3 mps 731 mmHg 46%
    15:00 +34°C° 0 mm 4 mps 730 mmHg 48%
    16:00 +33°C° 0 mm 3 mps 730 mmHg 53%
    17:00 +30°C° 0 mm 3 mps 731 mmHg 59%
    18:00 +28°C° 0 mm 2 mps 731 mmHg 64%
    19:00 +28°C° 0 mm 2 mps 731 mmHg 67%
    20:00 +27°C° 0 mm 2 mps 732 mmHg 70%
    21:00 +26°C° 0 mm 2 mps 732 mmHg 73%
    22:00 +26°C° 0 mm 2 mps 732 mmHg 76%
    23:00 +25°C° 0 mm 2 mps 732 mmHg 78%

    21 December, Thursday

    Time Temperature Precipitation Wind Pressure Humidity
    00:00 +25°C° 0 mm 2 mps 731 mmHg 81%
    01:00 +25°C° 0 mm 2 mps 731 mmHg 82%
    02:00 +24°C° 0 mm 2 mps 731 mmHg 83%
    03:00 +24°C° 0 mm 2 mps 731 mmHg 84%
    04:00 +24°C° 0 mm 2 mps 731 mmHg 85%
    05:00 +23°C° 0 mm 2 mps 732 mmHg 85%
    06:00 +23°C° 0 mm 2 mps 732 mmHg 86%
    07:00 +26°C° 0 mm 2 mps 733 mmHg 76%
    08:00 +28°C° 0 mm 2 mps 733 mmHg 66%
    09:00 +30°C° 0 mm 2 mps 734 mmHg 56%
    10:00 +33°C° 0 mm 3 mps 733 mmHg 50%
    11:00 +34°C° 0 mm 3 mps 732 mmHg 45%
    12:00 +35°C° 0 mm 3 mps 732 mmHg 39%
    13:00 +36°C° 0 mm 3 mps 731 mmHg 37%
    14:00 +36°C° 0 mm 3 mps 731 mmHg 36%
    15:00 +36°C° 0 mm 3 mps 730 mmHg 35%
    16:00 +34°C° 0 mm 3 mps 730 mmHg 41%
    17:00 +31°C° 0 mm 3 mps 731 mmHg 47%
    18:00 +29°C° 0 mm 2 mps 731 mmHg 53%
    19:00 +28°C° 0 mm 2 mps 731 mmHg 56%
    20:00 +27°C° 0 mm 2 mps 732 mmHg 60%
    21:00 +26°C° 0 mm 2 mps 732 mmHg 64%
    22:00 +26°C° 0 mm 2 mps 732 mmHg 67%
    23:00 +26°C° 0 mm 2 mps 732 mmHg 70%
    Show more